Parc national de Yoho, Colombie-Britannique

Conditions des dernières 24 heures

Ce tableau est un sommaire des conditions météo couvrant les dernières 24 heures. Ce sommaire inclut les paramètres suivants: température, humidité, point de rosée, direction et vitesse du vent, pression barométrique, facteur de refroidissement éolien ou indice humidex.
Date / Heure
(HAR)
Conditions Temp (°C) Humidite (%) Point de rose (°C) Vent (km/h) Pression (kPa) Vis (km) Refr. éolien
18 avril 2014
17:00 N.D. 3 87 1 OSO 22 100,7 N.D. *
16:00 N.D. 2 90 0 OSO 23 100,6 N.D. *
15:00 N.D. 2 92 0 OSO 24 100,6 N.D. *
14:00 N.D. 2 91 0 OSO 22 100,4 N.D. *
13:00 N.D. 1 93 0 OSO 22 100,4 N.D. *
12:00 N.D. 1 97 0 OSO 22 100,3 N.D. *
11:00 N.D. 0   97 0 OSO 15 100,2 N.D. *
10:00 N.D. 1 96 1 calme 100,1 N.D. *
9:00 N.D. 0   99 0 NE 7 100,1 N.D. *
8:00 N.D. 0   99 0 SE 5 100,1 N.D. *
7:00 N.D. 0 100 0 NE 10 100,1 N.D. -3
6:00 N.D. 0   100 0 NE 11 100,2 N.D. *
5:00 N.D. 0   100 0 NE 6 100,1 N.D. *
4:00 N.D. 0 100 0 ENE 7 100,2 N.D. -2
3:00 N.D. 0 100 0 ENE 4 100,3 N.D. -1
2:00 N.D. 0 100 0 calme 100,4 N.D. *
1:00 N.D. 0 100 0 E 4 100,4 N.D. -1
0:00 N.D. 0   100 0 calme 100,5 N.D. *
17 avril 2014
23:00 N.D. 0   100 0 E 4 100,5 N.D. -1
22:00 N.D. 0   99 0 calme 100,6 N.D. *
21:00 N.D. 1 99 1 O 10 100,6 N.D. *
20:00 N.D. 1 97 1 NO 3 100,6 N.D. *
19:00 N.D. 2 95 1 OSO 9 100,6 N.D. *
18:00 N.D. 3 92 1 OSO 6 100,6 N.D. *
17:00 N.D. 5   71 0 ENE 4 100,5 N.D. *
N.D.
non disponible
 ↑ 
température la plus haute
 ↓ 
température la plus basse
*
Valeur non significative.

Si vous désirez plus de données historiques sur les conditions météo, s.v.p. visitez Données climatologiques en ligne.